This is the latest recevied weather packets stored in our database for station/object N5SRF. If no packets are shown the sender has not sent any weather packets the latest 10 day(s).
| Time | Temp. | Humidity | Pressure | Rain* | Wind** | Luminosity | Snow |
|---|---|---|---|---|---|---|---|
| 1788113664 | 36.11° C | 49% | 1020.5 hPa | 0 mm | - | 189 W/m² | - |
| 1788113359 | 36.11° C | 49% | 1020.5 hPa | 0 mm | - | 780 W/m² | - |
| 1788113058 | 35.56° C | 50% | 1020.9 hPa | 0 mm | - | 783 W/m² | - |
| 1788112751 | 36.11° C | 51% | 1020.8 hPa | 0 mm | - | 778 W/m² | - |
| 1788112446 | 36.67° C | 50% | 1020.7 hPa | 0 mm | - | 761 W/m² | - |
| 1788112141 | 36.11° C | 49% | 1020.7 hPa | 0 mm | - | 745 W/m² | - |
| 1788111837 | 35.56° C | 50% | 1021.2 hPa | 0 mm | - | 736 W/m² | - |
| 1788111532 | 35.56° C | 49% | 1021 hPa | 0 mm | - | 726 W/m² | - |
| 1788111226 | 36.11° C | 49% | 1021 hPa | 0 mm | - | 733 W/m² | - |
| 1788110917 | 35.56° C | 49% | 1021.3 hPa | 0 mm | - | 728 W/m² | - |
| 1788110613 | 35.56° C | 48% | 1021.2 hPa | 0 mm | - | 726 W/m² | - |
| 1788110309 | 35.56° C | 55% | 1021.4 hPa | 0 mm | - | 718 W/m² | - |
| 1788110004 | 35° C | 56% | 1021.4 hPa | 0 mm | - | 715 W/m² | - |
| 1788109699 | 35.56° C | 55% | 1021.2 hPa | 0 mm | - | 710 W/m² | - |
| 1788109398 | 35° C | 58% | 1021.2 hPa | 0 mm | - | 705 W/m² | - |
| 1788109096 | 34.44° C | 58% | 1021.4 hPa | 0 mm | - | 705 W/m² | - |
| 1788108792 | 33.89° C | 57% | 1021.4 hPa | 0 mm | - | 694 W/m² | - |
| 1788108483 | 33.89° C | 58% | 1021.5 hPa | 0 mm | - | 684 W/m² | - |
| 1788108178 | 34.44° C | 57% | 1021.5 hPa | 0 mm | - | 674 W/m² | - |
| 1788107869 | 34.44° C | 56% | 1021.6 hPa | 0 mm | - | 666 W/m² | - |
| 1788107565 | 33.33° C | 60% | 1021.4 hPa | 0 mm | - | 655 W/m² | - |
| 1788107258 | 33.33° C | 60% | 1021.3 hPa | 0 mm | - | 648 W/m² | - |
| 1788106955 | 34.44° C | 58% | 1021.4 hPa | 0 mm | - | 634 W/m² | - |
| 1788106651 | 34.44° C | 59% | 1021.3 hPa | 0 mm | - | 623 W/m² | - |
| 1788106344 | 33.89° C | 60% | 1021.5 hPa | 0 mm | - | 616 W/m² | - |
* Rain latest hour (hover to see other rain measurements)
** Current wind speed in m/s (hover to see current wind gust speed)